Amateur Radio Satellites - All Passes

Search period start: 19 June 2013 09:01
Search period end: 20 June 2013 09:01
Location: Emporia, 38.4040°N, 96.1810°W

Satellite Date Start Highest point End Downlink Frequencies (MHz)
Time Altitude Azimuth
Sapphire 19 Jun 09:10:51 09:12:54 12° 41° (NE) 09:14:57 437.095 MHz 1200 baud AX-25 AFSK
AO-7 19 Jun 09:17:02 09:19:13 11° 315° (NW) 09:21:23 29.400 - 29.500 MHz
Saudisat 1A 19 Jun 09:19:11 09:21:41 15° 252° (WSW) 09:24:09 436.775 MHz
SO-67 19 Jun 09:25:57 09:29:27 51° 285° (WNW) 09:32:55 435.3500 MHz FM
Oscar 11 19 Jun 10:11:20 10:13:38 14° 92° (E) 10:15:56 145.825 FM, Beacon 2401.500 USB
JAS-1B 19 Jun 10:15:51 10:20:38 26° 293° (WNW) 10:25:52 435.800 - 435.900 CW/SSB
PCSat 19 Jun 10:17:30 10:22:36 39° 55° (NE) 10:27:39 145.825 MHz
SO-50 19 Jun 10:19:39 10:23:44 32° 51° (NE) 10:27:46 436.795 FM
RS-15 19 Jun 10:44:25 10:53:35 27° 102° (ESE) 11:02:27 29.354 - 29.394 USB, Beacon 29.352 USB
HO-68 19 Jun 10:49:06 10:56:16 67° 103° (ESE) 11:03:24 435.675 MHz FM
Sapphire 19 Jun 10:51:53 10:57:19 72° 61° (ENE) 11:02:44 437.095 MHz 1200 baud AX-25 AFSK
JAS-2 19 Jun 10:59:00 11:04:23 72° 102° (ESE) 11:09:31 435.800 - 435.900 CW/SSB, 435.910 FM
Oscar 11 19 Jun 11:45:54 11:50:06 47° 287° (WNW) 11:54:17 145.825 FM, Beacon 2401.500 USB
SO-50 19 Jun 12:00:30 12:04:12 25° 248° (WSW) 12:07:52 436.795 FM
PCSat 19 Jun 12:01:18 12:05:49 27° 252° (WSW) 12:10:19 145.825 MHz
UOSAT-12 19 Jun 12:02:07 12:03:23 11° 39° (NE) 12:04:38 437.025 FM, 437.400 FM
OPAL 19 Jun 12:26:30 12:31:30 86° 286° (WNW) 12:36:30 ?
Sapphire 19 Jun 12:37:24 12:40:04 14° 257° (WSW) 12:42:44 437.095 MHz 1200 baud AX-25 AFSK
HO-68 19 Jun 12:37:57 12:43:20 24° 301° (WNW) 12:48:43 435.675 MHz FM
JAS-2 19 Jun 12:46:23 12:48:44 13° 301° (WNW) 12:51:03 435.800 - 435.900 CW/SSB, 435.910 FM
RS-15 19 Jun 12:52:44 13:04:48 81° 302° (WNW) 13:16:23 29.354 - 29.394 USB, Beacon 29.352 USB
Oscar 19 19 Jun 13:28:25 13:32:26 23° 66° (ENE) 13:36:26 437.125 CW, 437.150 USB
UOSAT-12 19 Jun 13:39:44 13:44:21 74° 58° (ENE) 13:48:57 437.025 FM, 437.400 FM
ITAMSAT 1 19 Jun 13:52:55 13:57:30 32° 68° (ENE) 14:02:07 435.822 SSB
AO-27 19 Jun 13:53:59 13:58:38 34° 69° (ENE) 14:03:18 436.795 MHz FM
Oscar 16 19 Jun 14:12:10 14:17:19 72° 74° (ENE) 14:22:29 437.025 USB, Beacon 2401.1428
Uribyol 2 19 Jun 14:25:44 14:30:55 70° 74° (ENE) 14:36:08 436.500 FM
AO-Echo 19 Jun 14:30:21 14:34:06 24° 67° (ENE) 14:37:55 ?
Uosat F 19 Jun 14:50:59 14:53:57 16° 63° (ENE) 14:56:55 435.120 FM
TMSAT-1 19 Jun 14:54:09 14:54:53 10° 59° (ENE) 14:55:37 436.925 FM
Oscar 19 19 Jun 15:06:41 15:11:31 40° 262° (W) 15:16:23 437.125 CW, 437.150 USB
RS-15 19 Jun 15:09:44 15:19:15 27° 327° (NNW) 15:28:30 29.354 - 29.394 USB, Beacon 29.352 USB
UOSAT-12 19 Jun 15:22:45 15:23:53 11° 253° (WSW) 15:25:01 437.025 FM, 437.400 FM
Gurwin Techsat 1B 19 Jun 15:30:02 15:34:48 35° 69° (ENE) 15:39:35 435.225 FM
ITAMSAT 1 19 Jun 15:32:31 15:36:58 29° 264° (W) 15:41:28 435.822 SSB
AO-27 19 Jun 15:33:47 15:38:09 27° 264° (W) 15:42:34 436.795 MHz FM
Oscar 16 19 Jun 15:55:09 15:57:10 12° 270° (W) 15:59:12 437.025 USB, Beacon 2401.1428
AO-Echo 19 Jun 16:08:32 16:12:44 32° 263° (W) 16:17:01 ?
Uribyol 2 19 Jun 16:08:37 16:10:53 13° 270° (W) 16:13:08 436.500 FM
ISS 19 Jun 16:17:00 16:20:16 79° 140° (SE) 16:23:34 145.800 FM
AO-7 19 Jun 16:25:22 16:32:52 39° 62° (ENE) 16:40:23 29.400 - 29.500 MHz
Uosat F 19 Jun 16:27:19 16:32:14 59° 259° (W) 16:37:13 435.120 FM
TMSAT-1 19 Jun 16:28:39 16:33:57 84° 76° (ENE) 16:39:17 436.925 FM
KITSAT 1 19 Jun 17:02:11 17:09:17 36° 107° (ESE) 17:16:24 435.175 FM
Gurwin Techsat 1B 19 Jun 17:10:21 17:14:47 27° 265° (W) 17:19:15 435.225 FM
RS-15 19 Jun 17:30:49 17:37:23 16° 3° (N) 17:43:49 29.354 - 29.394 USB, Beacon 29.352 USB
ISS 19 Jun 17:55:04 17:57:18 17° 337° (NNW) 17:59:32 145.800 FM
TMSAT-1 19 Jun 18:13:37 18:14:29 10° 271° (W) 18:15:22 436.925 FM
AO-7 19 Jun 18:17:35 18:25:27 46° 259° (W) 18:33:25 29.400 - 29.500 MHz
STRAND 1 19 Jun 18:53:43 18:57:33 21° 94° (E) 19:01:21 ?
KITSAT 1 19 Jun 18:56:36 19:04:23 51° 306° (NW) 19:12:15 435.175 FM
JAS-1B 19 Jun 19:09:06 19:15:08 33° 68° (ENE) 19:20:27 435.800 - 435.900 CW/SSB
Hamsat 19 Jun 19:21:35 19:25:49 54° 74° (ENE) 19:30:06 145.90 MHz
RS-15 19 Jun 19:45:09 19:54:53 33° 38° (NE) 20:04:21 29.354 - 29.394 USB, Beacon 29.352 USB
SO-67 19 Jun 20:00:08 20:03:30 41° 74° (ENE) 20:06:53 435.3500 MHz FM
MaSat-1 19 Jun 20:16:25 20:22:13 89° 115° (ESE) 20:26:41 437.345 MHz
AO-40 19 Jun 20:26:33 02:45:17 47° 177° (S) 09:00:08 Beacon 2401.320
STRAND 1 19 Jun 20:32:02 20:36:54 43° 289° (WNW) 20:41:45 ?
KITSAT 1 19 Jun 20:58:01 21:02:00 14° 331° (NNW) 21:05:59 435.175 FM
JAS-1B 19 Jun 20:59:15 21:05:43 37° 261° (W) 21:11:23 435.800 - 435.900 CW/SSB
Hamsat 19 Jun 21:00:30 21:02:12 12° 270° (W) 21:03:55 145.90 MHz
Oscar 11 19 Jun 21:07:38 21:08:06 10° 63° (ENE) 21:08:33 145.825 FM, Beacon 2401.500 USB
JAS-2 19 Jun 21:08:35 21:14:50 31° 67° (ENE) 21:20:32 435.800 - 435.900 CW/SSB, 435.910 FM
ISS 19 Jun 21:11:27 21:13:02 13° 18° (NNE) 21:14:37 145.800 FM
HO-68 19 Jun 21:16:03 21:22:40 43° 66° (ENE) 21:29:20 435.675 MHz FM
SO-67 19 Jun 21:36:46 21:37:09 10° 269° (W) 21:37:31 435.3500 MHz FM
Saudisat 1A 19 Jun 21:44:53 21:48:15 21° 110° (ESE) 21:51:39 436.775 MHz
RS-15 19 Jun 21:57:24 22:08:25 79° 243° (WSW) 22:19:16 29.354 - 29.394 USB, Beacon 29.352 USB
PANSAT 19 Jun 22:02:18 22:04:27 14° 168° (SSE) 22:06:36 not established
MaSat-1 19 Jun 22:03:20 22:04:13 10° 305° (NW) 22:05:03 437.345 MHz
OPAL 19 Jun 22:03:40 22:06:49 17° 62° (ENE) 22:09:58 ?
Oscar 11 19 Jun 22:39:21 22:43:41 72° 258° (WSW) 22:48:04 145.825 FM, Beacon 2401.500 USB
ISS 19 Jun 22:47:03 22:50:18 55° 36° (NE) 22:53:32 145.800 FM
JAS-2 19 Jun 22:52:27 22:59:37 48° 260° (W) 23:06:08 435.800 - 435.900 CW/SSB, 435.910 FM
HO-68 19 Jun 23:04:04 23:10:24 34° 263° (W) 23:16:48 435.675 MHz FM
Saudisat 1A 19 Jun 23:23:21 23:27:40 41° 307° (NW) 23:32:02 436.775 MHz
OPAL 19 Jun 23:40:20 23:45:16 56° 257° (WSW) 23:50:11 ?
PANSAT 19 Jun 23:41:24 23:44:11 19° 181° (S) 23:46:57 not established
Sapphire 19 Jun 23:54:08 23:54:52 10° 101° (ESE) 23:55:36 437.095 MHz 1200 baud AX-25 AFSK
RS-15 20 Jun 00:13:19 00:18:46 15° 262° (W) 00:24:15 29.354 - 29.394 USB, Beacon 29.352 USB
ISS 20 Jun 00:24:55 00:26:38 14° 231° (SW) 00:28:21 145.800 FM
SO-50 20 Jun 00:35:16 00:38:01 15° 109° (ESE) 00:40:45 436.795 FM
KITSAT 1 20 Jun 00:56:59 01:01:59 17° 34° (NE) 01:06:57 435.175 FM
PCSat 20 Jun 00:57:44 01:02:54 48° 112° (ESE) 01:08:06 145.825 MHz
PANSAT 20 Jun 01:22:00 01:23:54 13° 194° (SSW) 01:25:48 not established
Sapphire 20 Jun 01:32:03 01:37:27 89° 297° (WNW) 01:42:54 437.095 MHz 1200 baud AX-25 AFSK
ITAMSAT 1 20 Jun 02:09:09 02:11:21 13° 90° (E) 02:13:33 435.822 SSB
AO-27 20 Jun 02:10:11 02:12:41 13° 91° (E) 02:15:10 436.795 MHz FM
SO-50 20 Jun 02:13:29 02:18:11 57° 304° (NW) 02:22:49 436.795 FM
Oscar 16 20 Jun 02:26:03 02:30:27 28° 96° (E) 02:34:49 437.025 USB, Beacon 2401.1428
Uribyol 2 20 Jun 02:40:41 02:45:09 28° 96° (E) 02:49:34 436.500 FM
PCSat 20 Jun 02:42:11 02:46:33 24° 310° (NW) 02:50:57 145.825 MHz
KITSAT 1 20 Jun 02:51:04 02:59:09 63° 57° (ENE) 03:07:11 435.175 FM
Sapphire 20 Jun 03:18:44 03:21:40 15° 316° (NW) 03:24:36 437.095 MHz 1200 baud AX-25 AFSK
Oscar 19 20 Jun 03:19:30 03:24:38 82° 103° (ESE) 03:29:45 437.125 CW, 437.150 USB
ITAMSAT 1 20 Jun 03:46:08 03:51:21 71° 286° (WNW) 03:56:31 435.822 SSB
AO-27 20 Jun 03:47:27 03:52:39 67° 286° (WNW) 03:57:49 436.795 MHz FM
Gurwin Techsat 1B 20 Jun 03:48:54 03:52:02 16° 91° (E) 03:55:09 435.225 FM
UOSAT-12 20 Jun 03:50:18 03:54:15 31° 113° (ESE) 03:58:14 437.025 FM, 437.400 FM
Oscar 16 20 Jun 04:05:17 04:09:47 32° 291° (WNW) 04:14:15 437.025 USB, Beacon 2401.1428
AO-Echo 20 Jun 04:16:11 04:21:23 88° 103° (ESE) 04:26:41 ?
Uribyol 2 20 Jun 04:20:00 04:24:36 33° 292° (WNW) 04:29:11 436.500 FM
AO-7 20 Jun 04:32:56 04:34:27 11° 88° (E) 04:35:57 29.400 - 29.500 MHz
Uosat F 20 Jun 04:36:39 04:41:33 49° 100° (E) 04:46:25 435.120 FM
TMSAT-1 20 Jun 04:46:24 04:51:20 38° 98° (E) 04:56:14 436.925 FM
KITSAT 1 20 Jun 04:47:27 04:53:56 27° 255° (WSW) 05:00:25 435.175 FM
Oscar 19 20 Jun 05:01:30 05:03:16 12° 299° (WNW) 05:05:03 437.125 CW, 437.150 USB
MaSat-1 20 Jun 05:02:31 05:03:16 11° 56° (NE) 05:04:00 437.345 MHz
Gurwin Techsat 1B 20 Jun 05:27:09 05:32:23 59° 287° (WNW) 05:37:35 435.225 FM
UOSAT-12 20 Jun 05:30:30 05:34:23 28° 310° (NW) 05:38:19 437.025 FM, 437.400 FM
AO-Echo 20 Jun 05:57:51 05:59:26 11° 299° (WNW) 06:01:03 ?
STRAND 1 20 Jun 06:08:20 06:12:33 27° 67° (ENE) 06:16:48 ?
Saudisat 1A 20 Jun 06:13:44 06:16:10 14° 42° (NE) 06:18:35 436.775 MHz
Uosat F 20 Jun 06:16:29 06:19:58 19° 296° (WNW) 06:23:27 435.120 FM
AO-7 20 Jun 06:20:12 06:28:34 69° 105° (ESE) 06:36:52 29.400 - 29.500 MHz
TMSAT-1 20 Jun 06:26:46 06:31:03 26° 293° (WNW) 06:35:20 436.925 FM
MaSat-1 20 Jun 06:43:28 06:44:55 14° 252° (WSW) 06:46:24 437.345 MHz
Hamsat 20 Jun 07:12:08 07:13:30 11° 90° (E) 07:14:51 145.90 MHz
STRAND 1 20 Jun 07:46:57 07:51:35 34° 263° (W) 07:56:15 ?
Saudisat 1A 20 Jun 07:51:54 07:56:26 77° 241° (WSW) 08:00:51 436.775 MHz
AO-7 20 Jun 08:14:03 08:20:39 27° 303° (WNW) 08:27:14 29.400 - 29.500 MHz
JAS-1B 20 Jun 08:43:17 08:49:11 62° 102° (ESE) 08:55:58 435.800 - 435.900 CW/SSB
Hamsat 20 Jun 08:45:37 08:49:55 57° 285° (WNW) 08:54:10 145.90 MHz

Developed and maintained by Chris Peat, Heavens-Above GmbH. Please read the updated FAQ before sending e-mail. Imprint. DLR
